Massena, NY

7:08 PM EST on December 15, 2019 (GMT -0500)
Massena International-Richards

Weather History for KMSS - October, 2019

Change the Weather History Date:

Wednesday, October 23, 2019

  Actual Average Record
Temperature  
Mean Temperature 51 °F 44 °F  
Max Temperature 59 °F 53 °F 81 °F (1979)
Min Temperature 43 °F 34 °F 22 °F (2000)
Degree Days  
Heating Degree Days 14 21  
Month to date heating degree days 368 400  
Since 1 July heating degree days 583 700  
Cooling Degree Days 0 0  
Month to date cooling degree days 0 0  
Year to date cooling degree days 398 361  
Moisture  
Dew Point 43 °F    
Average Humidity 70    
Maximum Humidity 93    
Minimum Humidity 46    
Precipitation  
Precipitation 0.02 in 0.10 in 1.44 in (1972)
Month to date precipitation 4.01 2.48  
Year to date precipitation 27.72 28.67  
Sea Level Pressure  
Sea Level Pressure 29.88 in    
Wind  
Wind Speed 11 mph (SW)    
Max Wind Speed 24 mph    
Max Gust Speed 33 mph    
Visibility 10 miles    
Events Rain    
T = Trace of Precipitation, MM = Missing Value Source: NWS Daily Summary

Daily Weather History Graph

Daily Weather History Graph

Search for Another Location

Airport or City:

Astronomy

Oct. 23, 2019 Rise Set
Actual Time 7:25 AM EDT 6:01 PM EDT
Civil Twilight 6:55 AM EDT 6:31 PM EDT
Nautical Twilight 6:21 AM EDT 7:05 PM EDT
Astronomical Twilight 5:47 AM EDT 7:39 PM EDT
Moon 1:21 AM EDT (10/23) 4:07 PM EDT (10/23)
Length of Visible Light 11h 36m
Length of Day
10h 36m
Waning Crescent, 27% of the Moon is Illuminated
Oct 23
Waning Crescent
Oct 27
New
Nov 4
First Quarter
Nov 12
Full
Nov 19
Last Quarter

Hourly Weather History & Observations

Time (EDT) Temp. Windchill Dew Point Humidity Pressure Visibility Wind Dir Wind Speed Gust Speed Precip Events Conditions
12:53 AM 55.0 °F - 52.0 °F 89% 29.78 in 10.0 mi South 5.8 mph - 0.03 in Rain Light Rain
1:53 AM 55.0 °F - 52.0 °F 89% 29.77 in 10.0 mi SSW 5.8 mph - 0.02 in Rain Light Rain
2:53 AM 55.0 °F - 51.1 °F 86% 29.78 in 10.0 mi SSW 9.2 mph - 0.00 in   Overcast
3:53 AM 54.0 °F - 50.0 °F 86% 29.79 in 10.0 mi SSW 8.1 mph - 0.00 in   Clear
4:53 AM 53.1 °F - 48.9 °F 86% 29.80 in 10.0 mi SSW 6.9 mph - N/A   Overcast
5:53 AM 48.9 °F - 46.0 °F 90% 29.81 in 10.0 mi SSW 5.8 mph - N/A   Partly Cloudy
6:53 AM 48.0 °F - 45.0 °F 89% 29.83 in 10.0 mi SSW 3.5 mph - N/A   Clear
7:53 AM 44.1 °F 42.5 °F 42.1 °F 93% 29.84 in 10.0 mi SSW 3.5 mph - N/A   Scattered Clouds
8:53 AM 51.1 °F - 46.9 °F 86% 29.85 in 10.0 mi SW 9.2 mph - N/A   Partly Cloudy
9:53 AM 54.0 °F - 46.0 °F 75% 29.85 in 10.0 mi SW 11.5 mph - N/A   Clear
10:53 AM 55.9 °F - 45.0 °F 67% 29.86 in 10.0 mi WSW 10.4 mph - N/A   Partly Cloudy
11:53 AM 55.0 °F - 43.0 °F 64% 29.85 in 10.0 mi WSW 11.5 mph 24.2 mph N/A   Scattered Clouds
12:53 PM 55.0 °F - 43.0 °F 64% 29.85 in 10.0 mi SW 11.5 mph 21.9 mph N/A   Partly Cloudy
1:53 PM 57.0 °F - 41.0 °F 55% 29.85 in 10.0 mi SW 12.7 mph 26.5 mph N/A   Partly Cloudy
2:53 PM 57.9 °F - 37.0 °F 46% 29.85 in 10.0 mi WSW 13.8 mph - N/A   Mostly Cloudy
3:53 PM 57.0 °F - 39.0 °F 51% 29.88 in 10.0 mi SW 13.8 mph 23.0 mph N/A   Overcast
4:53 PM 57.0 °F - 39.0 °F 51% 29.89 in 10.0 mi SW 23.0 mph 29.9 mph N/A   Partly Cloudy
5:53 PM 52.0 °F - 41.0 °F 66% 29.92 in 10.0 mi SW 13.8 mph - N/A   Clear
6:53 PM 53.1 °F - 41.0 °F 64% 29.95 in 10.0 mi SSW 12.7 mph - N/A   Overcast
7:53 PM 54.0 °F - 36.0 °F 51% 29.99 in 10.0 mi WSW 16.1 mph 21.9 mph N/A   Overcast
8:53 PM 53.1 °F - 37.0 °F 55% 30.01 in 10.0 mi SW 9.2 mph - N/A   Overcast
9:53 PM 52.0 °F - 37.0 °F 57% 30.03 in 10.0 mi SW 9.2 mph - N/A   Overcast
10:53 PM 51.1 °F - 39.0 °F 63% 30.04 in 10.0 mi SW 11.5 mph - N/A   Overcast
11:53 PM 51.1 °F - 39.9 °F 66% 30.04 in 10.0 mi SW 11.5 mph - N/A   Overcast